CAPE
0 0 0 0 0 0 0 0 0 0 0 0 0 0 0 0 0 0 0 0 0 0 0 0 0 0 0 0 3 16 20 4 0 0 69 178 172 288 336 390 463 490 546 749 942 1124 1247 1334 1478 1614 1665 1681 1691 1708 1747 1828 1946 2256 2580 2804 2973 3056 3047 2984 2909 2845 2806 2759 2728 2702 2660 2598 2516 2402 2283 2263 2284 2313 2341 2338 2314 2260 2166 2101 2048 2007 1929
0 0 0 0 0 0 0 0 0 0 0 0 0 0 0 0 0 0 0 0 0 0 0 0 0 0 0 18 84 6 76 260 83 48 3 107 200 258 302 354 426 500 609 749 873 1077 1366 1490 1540 1699 1806 1821 1781 1750 1760 1830 1939 2112 2407 2715 2909 3049 3098 3065 2985 2909 2854 2804 2769 2731 2702 2643 2588 2497 2387 2317 2311 2329 2346 2366 2351 2319 2281 2216 2145 2084 2038
0 0 0 0 0 0 0 0 0 0 0 0 0 0 0 0 0 0 0 0 0 0 0 0 0 0 0 0 0 23 76 320 404 102 116 183 203 310 333 381 430 487 600 791 914 1045 1338 1646 1735 1804 1881 1921 1926 1896 1856 1859 1933 2045 2244 2563 2826 3003 3104 3119 3080 3000 2917 2854 2801 2783 2743 2716 2674 2606 2535 2448 2378 2362 2391 2416 2429 2408 2371 2339 2303 2242 2182
0 0 0 0 0 0 0 0 0 0 0 0 0 0 0 0 0 0 0 0 0 0 0 0 0 0 0 0 0 22 68 115 560 439 234 306 320 403 388 455 537 602 664 835 1045 1196 1381 1705 1891 1937 2011 2024 2022 2031 1997 1953 1948 1993 2146 2397 2677 2893 3043 3129 3157 3112 3016 2920 2846 2821 2795 2770 2739 2704 2637 2570 2505 2444 2444 2492 2535 2535 2490 2448 2428 2400 2366
0 0 0 0 0 0 0 0 0 0 0 0 0 0 0 0 0 0 0 0 0 0 0 0 0 0 0 0 0 0 560 880 766 754 621 464 478 463 580 596 628 728 845 996 1146 1314 1452 1695 1964 2124 2178 2154 2127 2116 2087 2065 1996 1962 1999 2295 2530 2772 2965 3113 3212 3188 3126 3025 2937 2871 2839 2815 2790 2764 2724 2640 2595 2558 2519 2529 2615 2639 2644 2593 2567 2526 2499
0 0 0 0 0 0 0 0 0 0 0 0 0 0 0 0 0 0 0 0 0 0 0 0 0 0 0 0 0 0 539 1149 1002 928 878 846 708 713 704 700 714 852 999 1112 1266 1334 1446 1609 1890 2163 2315 2354 2329 2248 2183 2137 2096 2126 2209 2210 2456 2689 2896 3078 3215 3237 3192 3106 3029 2962 2899 2856 2850 2829 2778 2719 2645 2602 2593 2573 2609 2712 2748 2732 2701 2677 2655
0 0 0 0 1 0 0 0 0 0 0 0 0 0 0 0 0 0 0 0 0 0 0 0 0 0 0 95 114 78 0 243 1063 1043 1205 1020 921 968 906 776 818 849 987 1148 1333 1421 1431 1488 1692 2030 2364 2474 2510 2450 2367 2284 2261 2293 2310 2320 2425 2650 2847 3065 3193 3246 3229 3179 3119 3050 2978 2933 2913 2902 2859 2792 2720 2665 2622 2608 2658 2792 2853 2876 2868 2837 2821
0 1 2 0 0 0 0 0 0 0 0 0 0 131 492 545 2 0 0 0 0 0 0 0 0 0 0 730 1021 1038 858 319 0 79 972 1272 1111 1000 1018 980 898 889 979 1097 1200 1353 1473 1629 1756 1895 2284 2591 2679 2640 2559 2496 2438 2407 2404 2390 2415 2621 2815 3015 3158 3216 3229 3212 3176 3105 3042 2992 2975 2991 2971 2916 2858 2802 2719 2680 2774 2880 2946 2972 2997 2992 3000
0 0 3 0 0 0 0 0 0 0 0 0 0 331 463 895 810 50 27 35 90 81 56 0 0 0 0 544 1394 2086 1933 1368 597 134 0 375 1212 1334 1470 1674 1688 1362 1110 1177 1312 1328 1463 1714 1905 1995 2114 2455 2763 2821 2741 2675 2624 2502 2451 2431 2462 2582 2763 2936 3102 3193 3216 3203 3184 3151 3085 3025 3004 3047 3070 3066 3024 2978 2956 2941 2960 3000 3088 3136 3161 3189 3195
0 0 4 16 3 0 0 0 0 0 0 0 301 690 793 919 786 533 535 759 706 416 242 64 8 0 0 632 1300 2396 2464 2056 1821 1585 1480 902 0 40 216 1335 1763 1984 1963 1856 2036 2299 2057 1990 2139 2216 2202 2303 2530 2776 2866 2839 2734 2590 2447 2471 2492 2510 2691 2836 3024 3140 3197 3200 3189 3184 3130 3064 3031 3062 3131 3172 3164 3148 3192 3219 3210 3203 3225 3290 3383 3430 3490
0 2 0 3 5 0 0 2 0 1 500 703 566 665 812 918 1069 1104 1204 1184 1019 760 342 214 4 23 618 1102 1736 2322 2452 2332 2014 1878 1938 2112 2117 1693 564 35 818 1681 2038 2109 2123 2459 2842 2913 2791 2725 2705 2645 2719 2770 2789 2825 2811 2726 2607 2559 2553 2569 2609 2731 2911 3127 3255 3275 3240 3219 3192 3130 3084 3128 3244 3339 3353 3374 3386 3402 3439 3423 3413 3449 3493 3527 3602
8 2 1 0 0 0 0 3 27 3 10 59 0 325 772 886 1082 1039 1114 1091 1027 888 796 834 685 327 660 1554 2006 2273 2508 2641 2370 2006 1767 1715 1984 2721 3018 2503 822 766 1688 2232 2197 2248 2634 3042 3246 3306 3125 2994 2968 2975 2961 2931 2883 2858 2831 2738 2650 2606 2613 2653 2878 3149 3346 3402 3384 3350 3319 3265 3245 3314 3437 3519 3564 3587 3588 3598 3637 3657 3677 3695 3738 3788 3830
21 20 2 0 104 220 270 223 136 53 8 0 2 0 733 990 1133 1230 1384 1448 1484 1482 1380 1188 1533 2069 2120 2050 1942 1825 2173 2640 2813 2424 2005 1921 2170 2304 2394 2399 2820 1708 930 2042 2313 2399 2373 2717 3189 3510 3494 3234 3120 3127 3134 3071 3017 3014 2993 2927 2807 2738 2711 2705 2819 3206 3455 3548 3568 3558 3524 3498 3498 3555 3625 3679 3748 3789 3792 3793 3779 3815 3847 3872 3861 3836 3803
42 35 12 18 250 233 142 205 213 254 8 1 3 940 974 1426 1834 1991 1967 1954 1878 1827 1843 1915 1965 1820 1767 1518 1420 1579 1709 2012 2848 2972 2499 2132 2158 2177 2325 2290 2302 2776 3164 2570 1490 2192 2528 2616 2912 3308 3536 3463 3280 3214 3196 3178 3189 3204 3128 3005 2920 2837 2775 2758 2921 3328 3602 3723 3756 3795 3784 3735 3707 3730 3783 3820 3881 3946 3969 3969 3959 3958 3922 3884 3846 3802 3731
29 57 71 7 33 204 341 129 286 202 152 495 891 1405 1706 1704 1761 1824 1735 1692 1589 1471 1380 1325 1287 1301 1242 1216 1356 1402 1405 1499 1815 2624 3178 2728 2318 2408 2358 2411 2624 2454 2752 3221 3152 2937 3118 2674 2832 3196 3424 3568 3528 3328 3181 3196 3276 3272 3201 3105 2983 2897 2841 2803 3118 3553 3830 3913 3950 3996 3986 3927 3872 3896 3950 4014 4065 4074 4084 4086 4107 4095 4055 4007 3919 3839 3726
64 44 136 353 432 76 310 416 442 572 372 1079 1205 1359 1533 1514 1544 1484 1329 1138 1220 1155 1107 1063 1129 1154 1075 916 1180 1229 1382 1452 1440 1627 2572 3011 2676 2547 2664 2581 2594 2612 2654 2854 3126 3505 3332 3371 3460 3516 3471 3551 3562 3563 3433 3318 3243 3194 3203 3159 3068 2970 2929 3030 3550 3846 4038 4087 4128 4122 4099 4050 3995 4002 4098 4181 4232 4235 4222 4254 4249 4246 4161 4049 3883 3750 3558
151 179 262 409 370 310 481 558 926 1069 1130 1079 1385 1353 1276 1232 1167 1171 1115 1096 1062 1012 1059 1097 1130 1201 1291 1317 1418 1234 1370 1494 1450 1606 1671 2028 2632 2721 2564 2765 2782 2722 2626 2626 2814 3132 3430 3528 3565 3757 3725 3733 3732 3706 3542 3407 3358 3344 3290 3353 3388 3381 3406 3658 3949 4184 4210 4202 4205 4194 4187 4162 4139 4115 4183 4259 4312 4286 4328 4312 4292 4241 4033 3838 3627 3388 3151
458 120 213 270 549 662 483 720 1070 1130 1274 1152 981 879 911 938 906 795 822 813 846 842 937 1103 1181 1176 1355 1275 1329 1317 1356 1448 1567 1666 1647 1678 1862 2635 2977 2772 2774 2854 2790 2584 2576 2754 2930 3294 3674 3740 3871 3839 3888 3801 3783 3690 3627 3610 3624 3744 3736 3778 3856 3993 4113 4234 4298 4314 4290 4271 4278 4255 4210 4189 4245 4294 4330 4308 4269 4199 4067 3949 3766 3425 3204 2863 2384
228 24 70 189 248 489 528 668 988 968 986 816 813 867 836 787 706 635 540 559 619 685 723 778 828 1032 1114 1131 1172 1292 1340 1420 1532 1645 1722 1806 1834 1856 2009 2121 2483 2756 2819 2700 2598 2207 2439 2866 3122 3484 3621 3756 3740 3636 3871 4237 4053 4104 4111 4033 4092 4093 4061 4063 4120 4170 4225 4250 4285 4320 4331 4319 4296 4292 4287 4291 4292 4227 4037 3910 3751 3557 3395 3139 2653 2324 2162
414 208 144 182 333 462 517 646 630 584 747 697 514 598 636 598 517 350 285 241 178 0 183 269 482 615 728 866 999 985 1127 1250 1348 1529 1763 1791 1954 2083 2042 2070 1978 2216 2544 2511 2516 2607 2686 2678 2973 3421 3477 3384 3222 3217 3443 3894 4187 4068 3821 3936 3753 3907 4084 4027 4090 4134 4110 4190 4244 4321 4323 4324 4371 4360 4322 4208 4114 4006 3807 3630 3348 3023 2737 2478 2289 2021 1694
451 152 32 84 270 432 564 524 510 590 542 546 503 527 574 498 118 95 78 70 28 0 0 0 0 160 596 733 797 880 919 946 1025 1133 1385 1682 1868 1978 2038 2160 2190 2102 2258 2289 2232 2170 2156 2458 3096 3479 3910 4158 3994 3884 3964 4105 4222 4074 3918 3689 3804 3714 3881 4062 3998 3987 4074 4025 4125 4215 4323 4404 4352 4058 3991 3940 3727 3628 3282 2770 2653 2495 2194 1997 1828 1648 1404
38 43 224 314 243 106 282 381 674 666 617 532 287 385 467 394 229 46 42 30 12 0 0 0 0 380 516 599 712 725 799 827 971 1034 1100 1370 1608 1788 1950 1950 2083 2190 2170 2102 2100 2045 2226 2441 2789 3105 3187 3734 4381 4480 4426 4408 4059 4007 3994 3833 3735 3722 3737 3530 3587 3641 3971 3877 4030 4221 4251 4238 4070 3802 3718 3454 2766 2434 2234 2032 1864 1731 1669 1642 1511 1263 1048
280 906 753 804 172 86 303 283 571 612 449 314 286 176 0 172 16 12 2 0 0 0 0 0 366 450 533 604 694 779 735 834 919 1035 1120 1136 1352 1596 1646 1721 1802 1943 2084 2098 2019 1958 2004 1978 2005 2040 2010 2046 2597 3293 3887 3845 3986 4004 3619 3564 3572 3228 2428 2414 2852 3064 3450 3691 3379 3290 3173 3358 3460 3378 2109 2130 2075 1851 1615 1384 1158 944 924 958 921 823 628
536 584 763 827 362 108 61 197 134 252 343 336 335 236 0 0 0 0 0 0 334 470 530 556 542 560 520 603 703 813 958 996 1072 1176 1269 1257 1246 1229 1172 1129 1103 1088 1314 1429 1720 2052 1976 1838 1700 1575 1540 1578 1645 2204 2742 3182 3345 3408 3363 3198 2479 1922 1721 1609 2124 2298 2423 2372 2112 2146 2248 2674 2475 1915 1974 1779 1540 1281 1061 840 758 723 714 707 624 678 714
408 893 765 654 520 111 0 34 179 164 163 120 30 20 0 0 0 0 0 0 0 155 388 512 648 648 686 691 750 846 932 1024 1103 1150 1187 1225 1266 1315 1244 1145 1118 1096 1052 901 857 836 1025 1213 1248 1136 1076 1190 1275 1636 1948 2422 2185 2557 2428 2539 1689 944 1129 1340 1755 1864 1127 1370 1557 1835 2484 1955 1870 1677 1524 1268 1075 834 657 734 832 874 902 878 789 792 860
658 673 748 496 506 160 0 0 16 96 201 67 25 0 0 0 0 0 0 0 0 0 0 19 389 679 800 839 886 952 1038 1096 1140 1171 1165 1181 1255 1292 1270 1331 1365 1326 1291 1317 1332 1299 1061 816 783 759 687 633 843 850 804 889 1109 1453 1402 1348 1509 1445 1486 1382 1410 1485 1312 1689 2264 1994 1697 1657 1551 1332 1030 926 718 577 641 776 856 936 963 936 923 869 933
576 507 539 379 398 288 50 0 0 17 27 1 0 0 0 1 4 3 0 0 0 0 0 0 0 0 516 714 756 780 928 994 950 973 1098 1180 1158 1224 1289 1382 1466 1493 1478 1416 1353 1213 1140 1130 1119 1012 887 879 786 584 433 661 849 844 995 620 654 1288 1203 1447 1776 2054 2213 2103 1768 1608 1486 1425 1250 936 803 684 554 574 651 774 876 917 969 928 866 810 879
386 268 216 273 279 236 194 77 0 22 0 0 0 0 0 0 2 2 0 0 0 0 0 0 0 0 0 0 58 481 543 641 830 945 1034 1034 1025 986 1101 1165 1252 1475 1670 1602 1559 1463 1430 1352 1324 1194 1032 1041 1041 996 1043 868 918 1079 943 1001 1311 1682 1562 1996 2168 1883 1831 1573 1440 1380 1393 1353 1088 746 703 664 626 652 726 805 811 865 878 828 787 762 841
284 199 106 19 122 98 48 0 0 0 6 48 16 0 0 0 0 0 1 0 0 0 0 0 0 0 0 0 0 179 224 224 221 464 930 948 1023 1030 959 934 1003 1107 1198 1419 1448 1451 1400 1270 1352 1380 1295 1169 1037 1010 1009 1086 1175 1287 1409 1464 1380 1347 1332 1310 1322 1274 1269 1244 1221 1164 1152 1063 873 748 762 803 787 764 761 742 766 743 702 650 643 671 688
170 56 20 9 2 11 56 6 0 5 46 36 10 4 0 0 0 0 0 0 0 0 0 0 0 0 0 0 0 0 0 0 0 0 0 594 615 539 856 858 860 818 820 877 964 1083 1199 1218 1292 1245 1230 1072 1028 1149 1142 1148 1101 1079 1113 1051 972 887 795 767 902 1027 1062 1066 1084 1103 1107 971 885 776 740 716 632 649 686 698 660 648 589 578 581 584 569
38 21 22 0 7 15 2 26 5 54 34 8 0 0 0 0 0 0 0 0 0 0 0 0 0 0 0 0 0 0 0 0 0 0 0 0 0 12 228 608 634 738 883 901 903 837 907 1005 1031 998 926 874 901 998 1013 1210 1073 1168 1173 1110 1060 1018 927 865 813 847 874 932 1011 1064 1149 1102 987 906 854 748 664 627 595 609 597 592 542 521 483 414 459
10 2 0 0 6 7 42 49 48 39 16 3 9 14 1 0 0 0 0 0 0 0 0 0 0 0 0 0 0 0 0 0 0 0 0 0 0 0 0 0 399 810 813 828 861 844 842 823 857 1058 1283 1258 1085 1068 1268 1210 1171 1225 1234 1226 1142 1116 1058 966 922 897 842 828 780 861 909 958 927 860 812 801 779 696 653 625 593 560 557 519 488 462 456
1 0 0 6 17 15 14 28 27 14 1 0 0 0 0 0 0 2 4 0 0 0 0 0 0 0 0 0 0 0 0 0 0 0 0 0 0 0 0 0 0 0 0 422 523 716 739 776 743 780 980 1258 1280 1124 1087 1063 1158 1308 1365 1270 1192 1154 1138 1075 1059 907 827 749 728 680 696 718 744 759 704 646 654 608 559 547 537 513 473 439 421 446 475
11 4 22 16 20 29 34 27 21 15 3 2 8 8 5 7 4 2 11 9 0 0 0 0 2 2 2 2 1 0 1 2 2 1 0 1 0 0 0 0 0 1 1 8 9 1 0 354 793 757 771 801 963 1086 1069 989 986 1088 1199 1324 1204 1246 1196 1154 976 812 751 745 643 613 576 594 633 670 571 609 597 591 566 0 0 0 0 0 0 0 182
55 41 56 61 49 50 58 35 28 21 24 2 3 4 8 5 4 2 8 14 9 2 0 0 2 2 2 0 0 3 2 2 5 7 4 5 0 0 0 3 11 16 10 10 44 82 100 174 650 514 713 697 532 652 691 823 924 931 789 945 1318 1263 1203 988 856 736 686 638 697 730 761 786 810 844 776 749 722 667 596 188 0 0 0 0 0 0 0
73 58 56 37 20 5 9 20 20 22 2 4 14 12 8 3 9 6 12 13 9 8 4 4 3 2 2 0 3 1 0 1 11 18 20 56 104 113 94 68 60 29 32 21 22 94 154 399 1005 710 713 525 330 536 564 510 506 504 594 669 695 1010 1118 979 872 839 774 703 604 645 679 633 690 735 809 809 745 672 598 305 0 0 0 0 0 0 0
44 54 28 28 28 24 35 40 41 42 31 20 22 19 13 9 8 3 6 8 6 5 4 4 3 4 9 16 24 34 43 43 41 41 42 47 58 57 7 5 4 30 34 8 60 323 422 551 808 747 462 174 282 308 654 1067 504 628 499 507 512 440 474 505 602 682 764 857 721 634 607 550 469 519 648 784 771 697 598 456 224 174 0 0 0 0 0
24 51 30 8 8 28 25 47 64 69 66 62 58 72 48 4 15 19 20 18 15 5 1 0 0 0 2 33 46 54 48 38 33 27 24 22 25 37 37 8 1 2 2 1 2 60 386 420 308 115 4 93 143 225 706 1663 910 541 503 425 334 300 400 422 397 482 622 650 671 679 554 444 384 376 368 451 568 611 595 398 226 163 36 0 0 0 0
18 33 37 32 32 46 50 50 53 64 83 90 73 57 59 58 17 18 5 7 17 22 4 0 1 1 1 0 56 60 60 52 33 18 18 17 21 0 0 0 0 2 142 196 5 208 462 339 196 0 34 111 400 888 1760 1630 902 600 524 474 421 293 252 342 413 424 266 270 120 447 347 334 376 240 201 176 222 140 160 103 139 138 92 0 0 0 0
6 2 21 32 20 23 31 22 22 23 21 25 24 10 31 35 40 50 50 36 19 20 0 0 13 2 5 7 6 11 15 15 7 8 9 8 0 0 0 0 0 0 185 400 175 351 498 389 152 92 110 139 211 566 914 946 736 743 717 667 612 513 437 362 103 134 288 138 130 277 276 330 206 244 148 298 199 65 59 68 112 112 0 0 0 0 0
79 14 27 79 2 2 32 21 18 41 42 13 8 39 43 31 11 42 68 89 89 76 25 4 1 13 4 2 4 0 1 28 8 8 50 47 37 29 21 0 30 86 136 140 71 112 76 123 106 80 102 119 121 246 384 452 588 576 624 574 545 538 494 416 300 267 202 12 113 142 140 142 143 110 87 111 99 83 68 100 117 67 0 0 0 0 0
59 26 5 0 1 0 0 0 1 0 0 2 17 13 5 24 13 9 26 62 98 122 144 171 240 68 47 77 79 80 79 61 42 28 22 32 20 7 6 2 3 36 90 41 38 68 53 43 47 158 86 49 123 333 268 212 117 112 222 251 413 522 456 330 268 212 208 210 172 152 143 136 103 60 76 69 64 78 131 79 42 0 0 73 34 0 0
1 0 0 0 0 0 0 0 0 1 1 4 5 6 4 2 2 2 4 6 17 90 99 81 131 128 97 103 92 78 36 30 15 0 0 6 0 6 109 121 117 91 83 21 6 46 49 0 27 47 213 318 187 211 90 12 14 2 53 147 141 177 150 125 115 150 99 107 97 93 0 105 84 57 5 0 0 0 25 15 0 32 0 0 0 0 0
7 8 8 8 8 15 5 2 0 0 0 0 0 0 0 0 0 15 8 0 0 0 0 2 2 17 70 78 80 61 59 27 4 1 0 0 0 0 17 228 188 268 233 58 0 0 0 0 30 178 216 194 198 168 6 0 41 21 0 80 96 98 74 59 49 55 4 0 0 65 79 41 3 0 0 0 0 0 19 10 0 0 0 0 0 0 0
2 6 6 2 1 1 0 0 0 0 0 0 1 8 0 0 0 2 2 1 2 1 0 0 0 0 0 0 2 2 5 2 8 2 7 1 0 1 35 326 176 177 109 32 0 0 3 20 69 229 200 95 41 29 4 0 0 20 18 89 113 88 62 86 46 78 75 73 60 70 73 0 0 0 0 13 0 0 0 0 0 0 0 0 0 0 63
0 0 3 64 0 0 0 0 2 2 0 0 0 2 6 0 0 0 0 0 0 0 0 0 0 0 0 0 0 0 0 0 0 1 0 0 6 14 167 331 214 259 268 168 10 0 26 232 199 152 163 135 24 0 0 0 0 0 0 6 31 52 29 83 58 15 0 0 18 13 9 0 0 0 0 0 0 0 0 0 0 0 0 0 0 0 78
0 0 0 0 0 0 0 2 6 2 0 0 0 4 2 2 0 0 0 0 0 0 0 0 0 0 0 0 0 0 0 0 0 0 0 1 1 27 125 120 128 156 146 55 126 92 112 76 91 66 49 43 10 0 0 0 6 0 0 0 0 0 0 0 0 0 0 0 0 0 5 0 0 0 0 2 4 2 0 0 0 0 0 0 0 23 28
0 0 0 0 0 0 0 0 0 0 0 0 0 2 1 3 2 0 0 0 0 0 0 0 0 0 0 0 0 0 0 0 0 0 0 0 0 0 0 0 6 8 5 1 37 55 62 95 87 39 30 3 0 0 0 0 0 0 0 0 0 0 0 0 0 0 0 0 0 0 0 0 0 0 0 3 5 6 0 0 0 0 0 0 0 0 0
0 0 0 0 0 0 0 0 0 0 0 0 0 2 3 0 0 0 0 1 0 0 0 0 0 0 0 0 0 0 0 0 0 0 0 0 0 0 0 0 0 0 0 0 0 0 0 0 2 24 6 0 0 0 0 0 0 0 0 0 0 0 0 0 0 0 0 0 0 0 1 1 0 0 9 16 20 16 12 8 2 1 0 0 0 0 0
0 0 3 3 1 0 0 0 0 0 0 1 4 4 4 6 9 10 6 4 3 2 0 0 0 0 0 0 0 0 0 0 0 0 0 0 0 0 0 0 0 0 0 0 0 0 0 0 0 0 0 0 0 0 0 0 0 0 0 0 0 0 0 0 0 0 0 0 0 0 0 4 0 0 5 12 14 12 11 6 2 1 2 3 3 4 3
0 0 1 3 7 8 7 12 13 8 5 4 3 3 2 5 7 17 4 4 5 3 3 2 2 2 1 1 0 0 0 0 0 0 0 0 0 0 0 0 0 0 0 0 0 0 0 0 0 0 0 0 0 0 0 0 0 0 0 1 13 11 0 0 0 0 0 0 0 0 3 5 2 2 2 5 6 6 6 4 2 4 8 6 4 4 3
0 0 0 0 2 1 3 4 2 0 0 0 0 0 0 0 0 0 0 56 0 0 0 0 0 0 0 0 0 1 0 0 0 0 0 0 0 0 0 0 0 0 0 0 0 0 0 0 0 0 0 0 0 0 0 0 1 2 0 0 0 0 0 0 0 0 0 0 0 0 1 5 6 4 3 2 2 3 3 6 7 5 4 1 0 0 0
Wind_Speed
nan nan nan nan nan nan nan nan nan nan nan nan nan nan nan nan nan nan nan nan nan nan nan nan nan nan nan nan nan nan nan nan nan nan nan 19 18 19 25 27 28 28 25 22 23 25 24 24 22 19 19 18 20 23 24 23 23 22 23 23 22 22 21 19 17 16 16 15 15 15 14 14 12 9 8 7 6 6 5 6 8 9 10 11 12 14 16
nan nan nan nan nan nan nan nan nan nan nan nan nan nan nan nan nan nan nan nan nan nan nan nan nan nan nan nan nan nan nan 26 nan nan nan 18 19 22 25 26 25 25 24 22 25 27 27 28 26 23 20 18 19 22 24 26 26 25 27 25 24 23 22 20 18 18 18 17 17 17 16 14 12 11 9 8 7 5 5 7 8 9 9 11 13 16 19
nan nan nan nan nan nan nan nan nan nan nan nan nan nan nan nan nan nan nan nan nan nan nan nan nan nan nan nan nan nan nan 31 28 28 24 19 20 19 16 18 21 22 23 24 27 29 28 28 27 24 21 19 19 20 22 26 26 26 27 26 24 23 23 21 21 21 21 19 19 17 16 15 14 12 10 9 7 6 7 8 8 9 10 13 15 18 21
nan nan nan nan nan nan nan nan nan nan nan nan nan nan nan nan nan nan nan nan nan nan nan nan nan nan nan nan nan nan nan 33 35 31 23 21 23 21 17 19 24 25 25 27 29 29 29 28 27 26 25 25 24 22 22 22 23 26 26 26 25 24 24 25 24 24 23 22 19 17 17 15 14 13 12 10 8 7 8 9 9 11 12 14 17 20 22
nan nan nan nan nan nan nan nan nan nan nan nan nan nan nan nan nan nan nan nan nan nan nan nan nan nan nan nan nan nan 41 36 35 33 29 30 35 36 32 29 27 26 27 28 28 29 30 29 27 26 30 31 27 25 23 21 24 27 27 26 26 25 26 28 27 26 26 25 20 17 16 16 17 17 14 11 9 8 8 10 13 12 13 16 18 21 24
nan nan nan nan nan nan nan nan nan nan nan nan nan nan nan nan nan nan nan nan nan nan nan nan nan nan nan nan nan nan 42 36 35 34 33 36 39 40 40 36 30 28 28 28 27 27 29 28 28 29 34 35 32 29 26 26 28 28 28 27 26 26 28 28 29 28 28 27 22 17 17 19 20 18 15 11 10 11 12 13 13 13 14 17 19 22 25
nan nan nan nan nan nan nan nan nan nan nan nan nan nan nan nan nan nan nan nan nan nan nan nan nan nan nan nan 44 nan nan 50 43 35 34 37 42 43 42 38 33 30 27 23 21 22 25 27 31 35 36 36 36 36 35 32 30 30 29 28 27 28 29 28 29 30 30 29 25 20 19 21 22 19 16 14 12 13 14 13 13 14 15 18 20 23 26
nan nan nan nan nan nan nan nan nan nan nan nan nan 47 45 46 nan nan nan nan nan nan nan nan nan nan nan 58 56 55 54 51 nan nan 42 39 40 38 38 37 34 31 27 26 24 24 27 30 34 38 38 38 40 41 41 37 34 33 33 32 29 30 30 30 30 30 31 30 28 24 22 23 23 20 18 15 14 15 15 14 14 14 15 18 21 24 28
nan nan nan nan nan nan nan nan nan nan nan nan nan 44 44 45 46 nan nan nan nan nan nan nan nan nan nan 54 57 59 58 56 57 55 nan 46 44 43 42 42 39 36 34 31 29 30 33 35 37 38 38 41 43 45 44 41 38 36 37 36 32 31 31 30 30 31 31 32 31 28 24 24 23 21 19 17 17 19 17 16 16 16 18 20 23 27 30
nan nan nan nan nan nan nan nan nan nan nan nan 52 50 45 48 50 47 48 48 44 42 39 nan nan nan nan 44 44 50 55 59 61 60 59 55 nan nan 45 44 40 40 40 39 39 41 41 42 41 40 40 43 46 46 43 41 40 37 37 35 32 32 32 31 31 32 33 33 34 31 27 24 22 21 20 20 19 20 18 18 17 18 20 23 25 28 32
nan nan nan nan nan nan nan nan nan nan 55 64 64 60 50 48 49 49 51 53 47 44 44 40 nan nan 39 35 35 40 42 50 59 63 61 59 57 55 50 nan 41 40 41 41 40 42 46 45 44 47 46 44 45 44 41 40 39 36 33 32 32 32 32 33 33 33 34 34 34 33 28 24 23 22 22 22 23 23 20 20 19 21 24 26 27 29 32
nan nan nan nan nan nan nan nan nan nan nan nan nan 63 51 53 56 53 53 54 49 46 47 49 50 43 38 37 37 40 39 39 47 58 62 65 64 62 60 59 51 43 44 47 47 48 48 44 44 49 49 46 43 41 40 41 40 37 33 30 31 32 34 37 37 34 34 35 35 34 30 27 24 24 26 27 26 25 25 24 25 25 27 29 31 32 34
nan nan nan nan 60 66 75 72 62 nan nan nan nan nan 54 55 58 57 56 56 53 53 55 51 50 46 44 41 40 42 41 45 46 48 52 57 61 65 66 63 61 57 52 50 47 46 46 44 45 50 51 50 46 42 42 42 40 37 35 33 33 35 39 41 40 37 35 35 36 34 33 31 29 30 30 28 29 30 31 30 29 29 31 32 33 35 36
nan nan nan nan 57 62 78 79 66 52 nan nan nan 61 66 65 65 65 63 62 59 60 60 57 55 50 49 46 45 47 49 48 45 46 47 52 58 61 63 67 69 65 64 62 58 54 51 54 56 53 51 50 47 45 47 45 40 38 38 38 39 42 43 42 42 41 38 37 37 38 38 38 36 34 32 31 32 34 35 34 34 35 35 35 36 38 39
nan nan nan nan nan 63 83 83 70 66 55 50 49 58 64 65 68 67 67 66 63 63 64 61 59 58 56 55 53 51 51 52 51 49 49 50 51 53 58 62 64 64 64 64 65 64 62 60 61 61 60 55 50 47 46 45 43 42 45 47 45 45 46 46 44 43 41 40 40 42 43 43 41 38 37 36 37 39 39 39 39 40 39 39 40 41 42
nan nan 57 56 56 nan 72 73 69 67 61 56 56 56 59 59 63 63 64 65 63 64 65 65 67 66 64 62 59 57 57 55 51 49 49 50 50 51 52 52 52 53 53 53 56 61 66 70 68 68 65 61 58 56 51 48 46 48 52 53 52 50 49 48 47 45 43 42 42 45 47 48 46 44 42 41 41 42 42 42 43 43 41 41 43 43 44
36 44 54 54 60 66 69 68 73 79 74 69 65 66 63 61 60 58 61 60 60 61 61 61 61 63 64 62 60 59 56 56 55 53 52 53 53 52 53 53 51 49 50 48 47 51 57 63 68 70 71 70 67 60 57 61 60 56 54 56 58 54 51 51 52 50 47 46 46 47 49 52 51 49 47 46 47 45 46 45 45 44 42 43 44 44 45
39 42 46 51 52 64 74 76 78 81 77 72 71 72 72 69 65 62 62 59 61 61 59 60 58 58 57 60 59 58 57 57 56 55 54 57 57 56 56 57 56 54 53 54 53 51 53 59 61 65 69 71 68 67 71 70 68 64 63 63 62 59 56 57 59 57 53 52 52 51 51 53 55 52 50 49 50 48 48 47 46 45 45 45 45 46 47
46 nan nan 54 52 60 71 73 78 78 72 67 66 68 68 68 67 67 63 62 61 61 61 63 60 57 55 56 56 54 55 56 57 57 57 57 58 59 61 58 58 59 59 60 60 57 55 53 53 56 59 66 73 79 83 82 81 82 79 72 68 66 64 63 65 65 61 57 58 57 55 57 59 57 54 53 53 52 50 48 47 46 47 47 47 47 48
44 46 53 53 51 54 63 70 73 71 64 61 61 61 59 61 62 60 57 57 58 nan 58 57 60 58 55 56 56 58 58 58 57 56 55 55 55 57 58 60 60 62 64 65 67 65 61 57 55 54 54 56 60 65 70 77 81 86 90 84 71 69 70 67 68 71 68 64 62 60 57 60 63 61 56 54 53 52 50 49 48 47 47 47 47 48 49
46 43 nan nan 54 59 61 67 73 67 58 52 52 54 55 57 60 nan nan nan nan nan nan nan nan 62 58 56 57 61 60 61 59 56 55 54 53 52 54 56 60 64 63 65 67 68 65 60 59 60 59 58 59 62 67 69 73 80 87 91 82 72 71 71 75 79 74 66 63 64 64 67 70 65 56 53 55 55 53 51 49 49 47 48 48 48 51
nan nan 46 49 55 56 55 57 64 63 60 56 48 44 51 54 55 nan nan nan nan nan nan nan nan 59 57 57 58 61 60 60 60 59 57 55 55 54 52 51 52 57 60 60 62 64 62 60 62 64 65 63 62 64 67 72 74 76 82 86 82 74 71 73 80 79 76 70 71 71 70 70 70 68 71 67 60 56 52 54 53 52 52 49 49 51 54
51 47 47 47 48 nan 53 55 58 55 54 54 48 43 nan 51 nan nan nan nan nan nan nan nan 55 54 55 55 56 60 59 58 58 58 58 58 56 54 53 53 53 51 52 55 56 56 57 59 61 61 60 59 62 65 67 70 76 79 81 83 82 77 71 64 68 72 72 74 72 67 64 63 65 62 59 64 70 67 60 56 56 55 53 57 57 56 57
56 47 44 45 48 47 nan 53 54 51 46 47 46 46 nan nan nan nan nan nan 51 50 50 51 51 51 53 52 55 58 56 55 56 57 56 58 58 55 55 54 53 52 51 50 50 51 51 56 58 55 53 52 55 61 64 66 67 73 77 80 79 74 68 63 63 65 64 63 60 57 56 58 58 56 57 59 61 62 61 60 62 61 56 55 57 60 61
56 53 47 46 48 51 nan nan 52 50 46 47 nan nan nan nan nan nan nan nan nan 52 51 50 49 48 51 51 51 53 52 53 52 53 54 56 58 57 56 57 55 52 49 47 47 48 48 51 53 54 53 53 51 56 66 71 73 72 71 75 80 77 67 55 52 54 50 47 47 49 53 55 54 54 54 54 55 54 56 60 63 63 62 60 59 61 60
49 51 50 47 45 47 nan nan nan nan 46 nan nan nan nan nan nan nan nan nan nan nan nan nan 49 47 49 51 50 49 51 51 49 51 52 53 54 55 54 53 54 53 51 46 46 47 47 47 46 48 55 58 49 41 46 59 70 72 66 60 63 62 51 40 37 42 44 43 48 53 54 52 50 50 50 50 49 50 53 53 56 59 61 63 63 65 59
46 51 55 56 55 55 nan nan nan nan nan nan nan nan nan nan nan nan nan nan nan nan nan nan nan nan 46 48 50 51 51 47 50 51 50 51 52 51 48 50 53 53 52 49 46 46 46 41 39 42 49 50 45 35 27 39 54 61 60 52 46 45 41 33 35 40 42 46 51 53 50 47 47 48 48 47 48 49 51 53 53 55 55 58 61 59 50
48 51 54 57 60 64 65 nan nan nan nan nan nan nan nan nan nan nan nan nan nan nan nan nan nan nan nan nan nan 51 52 54 52 50 50 49 47 48 49 50 51 50 49 47 44 42 40 38 40 42 44 44 45 41 35 30 34 42 47 44 41 41 37 31 31 36 41 43 46 45 42 42 44 45 45 46 48 50 53 55 58 59 57 55 51 49 50
50 49 52 nan 59 nan nan nan nan nan nan nan nan nan nan nan nan nan nan nan nan nan nan nan nan nan nan nan nan 48 49 51 52 51 48 46 47 48 48 49 48 48 47 45 41 38 41 42 41 41 40 39 41 40 35 32 27 29 29 27 30 37 38 35 35 39 43 42 40 37 37 39 41 43 45 48 51 53 55 57 59 58 55 49 46 46 47
52 nan nan nan nan nan nan nan nan nan nan nan nan nan nan nan nan nan nan nan nan nan nan nan nan nan nan nan nan nan nan nan nan nan nan 47 46 45 47 46 48 46 45 44 39 36 39 42 42 41 37 32 31 26 24 29 27 26 25 24 26 31 36 37 39 40 39 37 35 36 35 37 39 41 45 49 53 55 58 59 57 55 50 45 45 48 49
nan nan nan nan nan nan nan nan nan nan nan nan nan nan nan nan nan nan nan nan nan nan nan nan nan nan nan nan nan nan nan nan nan nan nan nan nan nan 45 47 48 46 43 38 34 34 38 39 40 38 31 27 22 21 24 29 26 24 24 24 25 27 32 36 37 37 37 37 36 35 35 38 41 43 48 53 55 56 57 56 51 47 45 45 46 47 48
nan nan nan nan nan nan nan nan nan nan nan nan nan nan nan nan nan nan nan nan nan nan nan nan nan nan nan nan nan nan nan nan nan nan nan nan nan nan nan nan 46 44 40 36 34 34 35 37 38 34 32 30 26 25 25 26 26 26 26 27 30 31 34 38 35 36 37 37 36 35 36 40 42 46 51 55 55 54 51 48 44 42 43 45 47 48 49
nan nan nan nan nan nan nan nan nan nan nan nan nan nan nan nan nan nan nan nan nan nan nan nan nan nan nan nan nan nan nan nan nan nan nan nan nan nan nan nan nan nan nan 36 33 32 32 35 34 34 35 32 30 27 26 26 27 27 26 26 29 29 30 31 32 33 35 36 37 37 41 43 47 49 52 52 51 49 45 43 43 44 45 46 48 48 46
nan nan nan nan nan nan nan nan nan nan nan nan nan nan nan nan nan nan nan nan nan nan nan nan nan nan nan nan nan nan nan nan nan nan nan nan nan nan nan nan nan nan nan nan nan nan nan 32 33 36 38 36 33 30 28 27 27 28 27 26 27 31 30 31 32 34 36 37 39 41 45 47 49 49 49 48 48 47 46 nan nan nan nan nan nan nan 42
nan nan nan nan nan nan nan nan nan nan nan nan nan nan nan nan nan nan nan nan nan nan nan nan nan nan nan nan nan nan nan nan nan nan nan nan nan nan nan nan nan nan nan nan nan nan nan 30 31 36 40 39 35 30 28 29 28 31 29 29 26 31 34 34 36 37 38 41 44 46 48 49 49 48 47 47 46 48 48 49 nan nan nan nan nan nan nan
nan nan nan nan nan nan nan nan nan nan nan nan nan nan nan nan nan nan nan nan nan nan nan nan nan nan nan nan nan nan nan nan nan nan nan nan 23 24 nan nan nan nan nan nan nan nan 28 29 35 41 40 37 35 31 28 29 29 32 32 32 34 34 34 36 39 41 44 47 49 49 48 49 49 48 47 48 49 52 54 55 nan nan nan nan nan nan nan
nan nan nan nan nan nan nan nan nan nan nan nan nan nan nan nan nan nan nan nan nan nan nan nan nan nan nan nan nan nan nan nan nan nan nan nan nan nan nan nan nan nan nan nan nan 29 28 34 42 43 40 36 34 34 30 30 32 35 38 39 39 37 35 33 34 40 44 47 47 47 47 48 48 47 47 49 50 50 52 53 51 45 nan nan nan nan nan
nan nan nan nan nan nan nan nan nan nan nan nan nan nan nan nan nan nan nan nan nan nan nan nan nan nan nan nan nan nan nan nan nan nan nan nan nan nan nan nan nan nan nan nan nan nan 35 40 45 41 nan nan 36 34 33 35 40 39 41 43 43 44 40 38 39 43 44 42 39 41 43 46 47 46 45 43 40 36 34 37 38 35 nan nan nan nan nan
nan nan nan nan nan nan nan nan nan nan nan nan nan nan nan nan nan nan nan nan nan nan nan nan nan nan nan nan nan nan nan nan nan nan nan nan nan nan nan nan nan nan 39 38 nan 41 42 43 41 nan nan 42 41 39 40 45 43 40 40 43 44 44 45 41 41 43 42 39 37 36 38 37 37 38 37 34 31 29 29 31 33 31 nan nan nan nan nan
nan nan nan nan nan nan nan nan nan nan nan nan nan nan nan nan nan nan nan nan nan nan nan nan nan nan nan nan nan nan nan nan nan nan nan nan nan nan nan nan nan nan 36 40 39 42 47 51 45 nan 42 39 40 41 41 42 41 38 38 38 38 40 41 41 40 39 36 33 34 35 35 29 27 31 32 31 28 nan nan nan 34 32 nan nan nan nan nan
nan nan nan nan nan nan nan nan nan nan nan nan nan nan nan nan nan nan nan nan nan nan nan nan nan nan nan nan nan nan nan nan nan nan nan nan nan nan nan nan nan nan 33 36 nan 40 nan 44 42 nan 37 35 34 37 36 40 39 38 37 36 36 37 39 38 37 38 36 nan 32 33 33 30 28 33 nan 34 nan nan nan 34 35 nan nan nan nan nan nan
nan nan nan nan nan nan nan nan nan nan nan nan nan nan nan nan nan nan nan nan nan 25 26 27 31 nan nan nan nan nan nan nan nan nan nan nan nan nan nan nan nan nan nan nan nan nan nan nan nan 37 nan nan 31 37 37 34 34 35 37 37 35 33 35 35 34 37 38 39 39 37 36 33 36 nan nan nan nan nan 34 nan nan nan nan nan nan nan nan
nan nan nan nan nan nan nan nan nan nan nan nan nan nan nan nan nan nan nan nan nan nan nan nan 24 25 nan 25 nan nan nan nan nan nan nan nan nan nan 28 27 28 nan nan nan nan nan nan nan nan nan 38 36 36 41 nan nan nan nan nan 35 31 27 30 32 29 27 nan 35 nan nan nan 37 nan nan nan nan nan nan nan nan nan nan nan nan nan nan nan
nan nan nan nan nan nan nan nan nan nan nan nan nan nan nan nan nan nan nan nan nan nan nan nan nan nan nan nan nan nan nan nan nan nan nan nan nan nan nan 24 25 29 36 nan nan nan nan nan nan 39 44 44 43 41 nan nan nan nan nan nan nan nan nan nan nan nan nan nan nan nan nan nan nan nan nan nan nan nan nan nan nan nan nan nan nan nan nan
nan nan nan nan nan nan nan nan nan nan nan nan nan nan nan nan nan nan nan nan nan nan nan nan nan nan nan nan nan nan nan nan nan nan nan nan nan nan nan 22 24 25 30 nan nan nan nan nan nan 42 41 nan nan nan nan nan nan nan nan nan 35 nan nan nan nan nan nan nan nan nan nan nan nan nan nan nan nan nan nan nan nan nan nan nan nan nan nan
nan nan nan nan nan nan nan nan nan nan nan nan nan nan nan nan nan nan nan nan nan nan nan nan nan nan nan nan nan nan nan nan nan nan nan nan nan nan 24 28 24 26 33 34 nan nan nan 40 41 38 39 41 nan nan nan nan nan nan nan nan nan nan nan nan nan nan nan nan nan nan nan nan nan nan nan nan nan nan nan nan nan nan nan nan nan nan nan
nan nan nan nan nan nan nan nan nan nan nan nan nan nan nan nan nan nan nan nan nan nan nan nan nan nan nan nan nan nan nan nan nan nan nan nan nan nan 30 36 36 38 34 nan 31 nan 32 nan nan nan nan nan nan nan nan nan nan nan nan nan nan nan nan nan nan nan nan nan nan nan nan nan nan nan nan nan nan nan nan nan nan nan nan nan nan nan nan
nan nan nan nan nan nan nan nan nan nan nan nan nan nan nan nan nan nan nan nan nan nan nan nan nan nan nan nan nan nan nan nan nan nan nan nan nan nan nan nan nan nan nan nan nan nan nan nan nan nan nan nan nan nan nan nan nan nan nan nan nan nan nan nan nan nan nan nan nan nan nan nan nan nan nan nan nan nan nan nan nan nan nan nan nan nan nan
nan nan nan nan nan nan nan nan nan nan nan nan nan nan nan nan nan nan nan nan nan nan nan nan nan nan nan nan nan nan nan nan nan nan nan nan nan nan nan nan nan nan nan nan nan nan nan nan nan nan nan nan nan nan nan nan nan nan nan nan nan nan nan nan nan nan nan nan nan nan nan nan nan nan nan nan nan nan nan nan nan nan nan nan nan nan nan
nan nan nan nan nan nan nan nan nan nan nan nan nan nan nan nan nan nan nan nan nan nan nan nan nan nan nan nan nan nan nan nan nan nan nan nan nan nan nan nan nan nan nan nan nan nan nan nan nan nan nan nan nan nan nan nan nan nan nan nan nan nan nan nan nan nan nan nan nan nan nan nan nan nan nan nan nan nan nan nan nan nan nan nan nan nan nan
nan nan nan nan nan nan nan nan nan nan nan nan nan nan nan nan nan nan nan nan nan nan nan nan nan nan nan nan nan nan nan nan nan nan nan nan nan nan nan nan nan nan nan nan nan nan nan nan nan nan nan nan nan nan nan nan nan nan nan nan nan nan nan nan nan nan nan nan nan nan nan nan nan nan nan nan nan nan nan nan nan nan nan nan nan nan nan
nan nan nan nan nan nan nan nan nan nan nan nan nan nan nan nan nan nan nan nan nan nan nan nan nan nan nan nan nan nan nan nan nan nan nan nan nan nan nan nan nan nan nan nan nan nan nan nan nan nan nan nan nan nan nan nan nan nan nan nan nan nan nan nan nan nan nan nan nan nan nan nan nan nan nan nan nan nan nan nan nan nan nan nan nan nan nan
Wind_Direction
nan nan nan nan nan nan nan nan nan nan nan nan nan nan nan nan nan nan nan nan nan nan nan nan nan nan nan nan nan nan nan nan nan nan nan 253 256 267 281 290 292 295 292 274 263 265 270 270 271 272 271 276 277 273 271 274 280 290 290 292 300 306 305 303 303 296 286 277 271 269 268 267 268 267 262 251 239 244 260 278 279 299 304 306 308 313 315
nan nan nan nan nan nan nan nan nan nan nan nan nan nan nan nan nan nan nan nan nan nan nan nan nan nan nan nan nan nan nan 228 nan nan nan 278 286 288 292 296 296 293 294 276 258 257 259 263 265 265 263 271 282 283 277 279 286 291 289 295 302 309 314 312 296 289 286 278 275 274 273 274 271 267 256 247 243 249 266 274 278 284 291 299 308 314 316
nan nan nan nan nan nan nan nan nan nan nan nan nan nan nan nan nan nan nan nan nan nan nan nan nan nan nan nan nan nan nan 233 239 254 255 249 259 259 265 281 287 286 283 269 253 251 255 262 270 270 269 271 277 283 277 275 282 287 290 295 301 308 317 309 293 288 284 284 280 282 281 271 262 261 255 243 238 244 255 265 276 279 289 305 312 313 319
nan nan nan nan nan nan nan nan nan nan nan nan nan nan nan nan nan nan nan nan nan nan nan nan nan nan nan nan nan nan nan 227 244 245 242 248 258 262 269 273 270 268 266 256 250 252 256 262 268 271 275 276 278 285 282 279 282 282 287 293 300 306 309 300 295 293 289 287 285 285 278 271 263 256 247 239 235 242 255 270 272 276 297 312 314 316 320
nan nan nan nan nan nan nan nan nan nan nan nan nan nan nan nan nan nan nan nan nan nan nan nan nan nan nan nan nan nan 216 221 242 250 247 248 248 243 237 241 249 260 263 255 250 253 259 265 268 276 283 284 288 290 287 284 275 276 285 291 295 298 299 300 302 298 290 288 290 284 281 272 257 249 246 240 238 245 260 264 267 285 305 309 314 320 323
nan nan nan nan nan nan nan nan nan nan nan nan nan nan nan nan nan nan nan nan nan nan nan nan nan nan nan nan nan nan 218 226 230 236 246 252 257 257 250 246 247 247 244 243 252 265 271 274 281 284 282 286 290 291 289 277 271 274 280 284 287 291 292 297 301 298 292 291 288 286 276 266 257 252 250 245 240 242 246 255 272 291 302 313 318 322 325
nan nan nan nan nan nan nan nan nan nan nan nan nan nan nan nan nan nan nan nan nan nan nan nan nan nan nan nan 212 nan nan 214 218 236 246 244 251 258 261 261 260 256 251 244 247 259 269 277 275 272 274 279 282 281 279 278 277 278 280 282 280 281 286 292 294 293 293 292 290 281 273 267 261 257 253 242 242 245 251 265 282 296 308 316 319 320 322
nan nan nan nan nan nan nan nan nan nan nan nan nan 218 217 219 nan nan nan nan nan nan nan nan nan nan nan 227 218 212 211 219 nan nan 223 234 242 250 256 266 268 266 259 252 250 252 255 261 265 268 273 276 277 278 277 280 280 279 281 280 278 276 280 286 290 292 293 292 288 280 272 267 264 260 254 251 252 251 255 263 275 287 299 309 316 319 320
nan nan nan nan nan nan nan nan nan nan nan nan nan 222 217 216 220 nan nan nan nan nan nan nan nan nan nan 226 218 212 211 213 216 224 nan 227 229 236 245 251 249 248 251 252 254 253 252 255 261 264 268 272 274 275 275 277 279 278 276 275 275 276 280 284 288 289 288 288 286 283 276 269 266 262 257 256 254 253 261 271 283 298 307 311 313 315 317
nan nan nan nan nan nan nan nan nan nan nan nan 225 225 216 213 216 227 240 246 243 243 241 nan nan nan nan 222 220 218 216 217 219 221 222 226 nan nan 236 238 249 262 258 248 243 244 245 248 254 258 263 266 268 270 274 276 278 276 273 273 274 276 279 282 286 285 282 282 283 282 277 275 270 262 258 256 260 262 273 281 293 302 301 303 306 311 316
nan nan nan nan nan nan nan nan nan nan 220 222 214 218 216 214 216 224 236 241 241 242 243 237 nan nan 231 233 232 230 226 220 219 223 227 229 228 232 235 nan 243 247 256 265 266 260 254 251 248 249 252 258 262 267 270 274 275 275 272 272 272 273 277 280 280 278 276 276 278 280 280 277 268 265 262 262 261 265 273 281 288 286 290 298 300 304 311
nan nan nan nan nan nan nan nan nan nan nan nan nan 216 213 215 217 223 232 236 236 235 235 240 239 243 245 235 232 230 232 234 227 224 224 226 227 232 236 234 234 240 248 250 249 253 256 256 255 256 257 259 263 266 268 270 271 271 273 274 273 271 270 269 268 268 268 273 275 277 279 275 267 262 257 256 263 270 271 274 277 282 288 293 298 301 302
nan nan nan nan 207 211 211 209 201 nan nan nan nan nan 215 217 220 222 227 230 229 229 229 231 240 238 242 238 233 230 232 235 232 230 229 228 229 231 234 234 232 236 240 249 255 256 257 259 261 263 263 264 267 267 265 262 263 268 273 272 267 262 259 261 265 268 266 270 275 274 272 270 264 259 258 262 267 270 270 269 275 280 285 287 292 294 294
nan nan nan nan 208 213 208 203 201 202 nan nan nan 211 216 222 223 223 224 228 227 229 230 231 236 240 239 239 237 234 233 236 240 239 234 230 230 232 234 235 237 237 239 242 244 245 250 251 249 249 254 266 267 266 264 263 262 263 263 258 253 253 255 259 264 265 265 266 270 268 264 261 261 262 261 266 270 269 268 274 279 279 277 281 285 286 287
nan nan nan nan nan 205 202 196 205 213 212 210 218 221 218 221 224 225 224 226 226 229 230 231 234 235 235 235 237 240 239 240 240 241 240 239 237 232 231 232 233 237 240 240 242 243 244 250 256 255 253 250 248 252 259 264 263 265 262 254 250 251 254 256 259 263 263 265 264 261 261 262 263 262 261 264 265 266 270 273 275 274 276 279 283 286 288
nan nan 193 194 195 nan 197 202 207 206 211 217 222 225 226 222 225 227 229 226 228 231 234 232 231 231 232 232 235 239 239 241 244 245 244 244 242 240 240 239 235 236 240 242 243 242 242 241 246 254 258 260 258 252 245 244 246 255 258 255 252 251 252 255 255 255 257 260 259 259 261 259 258 258 259 261 262 264 267 270 270 271 274 279 282 287 291
194 189 189 189 189 195 200 202 204 206 212 218 226 230 231 232 228 228 233 232 231 233 236 234 231 232 233 236 237 239 240 242 242 242 243 244 243 243 241 239 240 242 242 240 243 244 240 242 245 246 253 259 259 261 259 255 251 251 254 254 251 250 250 252 253 251 253 256 257 256 257 257 256 255 256 259 259 259 263 265 268 272 275 278 282 286 289
195 186 184 185 189 196 201 205 210 212 212 218 228 235 235 230 233 235 241 240 238 237 236 240 235 234 234 236 237 239 241 242 241 242 242 242 245 246 245 244 243 246 247 247 243 240 238 235 235 241 247 251 260 261 261 262 261 259 255 250 248 248 248 250 251 252 255 257 256 254 253 251 253 253 256 256 258 259 261 264 267 271 275 277 281 285 287
197 nan nan 190 189 196 202 206 211 215 212 214 223 233 236 237 238 241 243 244 244 243 243 244 245 242 239 240 240 241 241 240 240 239 237 237 240 243 245 247 249 250 251 251 248 248 247 243 242 240 241 246 251 253 253 251 252 252 251 249 246 243 246 248 249 251 258 258 254 250 249 247 246 247 249 252 256 258 260 264 267 271 275 278 281 285 287
195 191 185 187 190 199 205 211 213 211 209 211 220 228 231 233 234 238 241 241 241 nan 243 243 246 245 242 241 240 240 239 240 241 239 237 237 238 240 244 246 250 253 253 254 254 254 253 254 254 252 250 248 250 253 256 259 258 255 252 246 243 243 242 243 245 250 254 260 255 246 246 246 246 246 246 251 256 259 262 266 269 272 275 279 283 286 287
192 187 nan nan 196 199 199 209 212 207 206 210 219 229 233 235 238 nan nan nan nan nan nan nan nan 243 241 241 241 240 239 240 239 239 239 240 241 243 243 244 247 251 254 255 256 256 257 259 262 263 260 258 256 258 261 262 264 262 257 252 246 242 240 239 240 244 247 247 245 244 241 235 235 237 243 249 252 251 251 261 268 273 275 276 280 283 285
nan nan 193 191 199 200 198 208 214 208 204 209 212 225 235 237 240 nan nan nan nan nan nan nan nan 243 242 241 241 241 242 241 240 241 241 242 243 244 246 248 250 254 256 256 256 257 257 259 263 264 265 266 264 262 263 266 265 262 261 259 257 249 238 236 236 234 237 236 233 235 237 236 236 234 230 232 239 252 254 248 253 264 271 273 277 279 280
206 204 199 197 204 nan 207 212 214 213 213 216 219 224 nan 236 nan nan nan nan nan nan nan nan 240 241 242 241 242 243 242 242 243 244 243 244 245 245 246 249 249 252 257 261 263 262 262 262 261 260 261 264 266 266 265 266 269 269 266 264 261 256 249 240 243 240 233 228 229 234 235 232 230 234 235 233 235 238 244 250 254 259 266 273 276 279 278
207 206 204 202 199 205 nan 218 219 218 218 220 220 225 nan nan nan nan nan nan 245 241 239 238 238 241 242 242 244 246 244 243 244 245 246 248 248 248 249 253 255 257 258 258 261 264 266 267 265 263 262 262 265 265 263 264 267 267 265 266 266 262 257 256 249 243 235 231 232 233 227 224 228 235 239 242 240 237 241 250 254 257 263 275 281 281 283
212 213 212 208 207 207 nan nan 227 227 229 232 nan nan nan nan nan nan nan nan nan 243 242 241 238 239 244 243 245 246 246 245 244 246 248 249 249 249 249 249 251 256 258 260 262 265 270 274 277 278 275 267 262 266 265 260 257 257 258 262 265 264 263 260 253 243 234 229 226 224 221 222 230 237 241 245 249 249 244 249 254 257 258 261 268 277 282
217 215 216 216 214 213 nan nan nan nan 227 nan nan nan nan nan nan nan nan nan nan nan nan nan 241 239 242 245 245 246 246 244 245 246 248 249 249 249 247 248 252 255 256 261 264 263 263 267 270 272 273 272 277 287 277 257 254 259 260 260 263 260 257 254 243 232 224 217 216 216 219 226 234 238 240 246 252 255 259 260 256 256 257 259 263 269 270
221 224 227 225 223 224 nan nan nan nan nan nan nan nan nan nan nan nan nan nan nan nan nan nan nan nan 241 243 246 245 247 247 246 245 247 248 249 252 252 253 254 257 258 261 263 263 263 265 266 269 272 276 283 291 273 250 244 246 248 252 256 258 256 233 216 213 216 216 215 218 225 233 239 241 244 248 254 258 262 264 265 265 265 262 260 262 271
221 222 221 225 229 231 233 nan nan nan nan nan nan nan nan nan nan nan nan nan nan nan nan nan nan nan nan nan nan 247 245 246 246 247 247 248 250 252 253 254 255 257 258 258 257 257 262 266 267 268 269 271 276 282 283 265 252 244 238 235 239 233 228 230 222 217 220 219 217 222 231 237 240 243 247 252 255 258 260 262 263 263 260 260 265 268 271
219 223 223 nan 224 nan nan nan nan nan nan nan nan nan nan nan nan nan nan nan nan nan nan nan nan nan nan nan nan 245 250 251 251 250 251 250 251 252 253 255 258 258 257 255 252 253 257 261 262 263 264 268 275 276 276 275 268 257 249 245 232 224 227 233 233 225 221 222 225 234 241 242 242 245 250 253 255 257 259 262 262 262 265 270 274 274 276
215 nan nan nan nan nan nan nan nan nan nan nan nan nan nan nan nan nan nan nan nan nan nan nan nan nan nan nan nan nan nan nan nan nan nan 252 252 253 253 255 256 256 256 252 249 250 256 259 258 257 257 264 269 262 262 274 279 270 256 245 233 224 224 229 229 228 228 235 246 256 252 248 249 254 256 258 260 260 261 262 264 266 271 277 281 285 287
nan nan nan nan nan nan nan nan nan nan nan nan nan nan nan nan nan nan nan nan nan nan nan nan nan nan nan nan nan nan nan nan nan nan nan nan nan nan 253 255 259 261 259 256 251 250 255 257 259 261 264 266 271 275 263 261 264 262 255 247 240 239 239 236 235 238 245 254 260 260 255 254 257 261 262 261 262 263 264 265 267 270 275 279 283 286 288
nan nan nan nan nan nan nan nan nan nan nan nan nan nan nan nan nan nan nan nan nan nan nan nan nan nan nan nan nan nan nan nan nan nan nan nan nan nan nan nan 260 261 261 258 253 251 253 254 253 254 257 258 257 256 256 251 250 255 256 254 250 246 249 253 247 252 257 262 264 261 261 264 264 263 263 264 266 268 269 270 271 274 279 282 284 286 288
nan nan nan nan nan nan nan nan nan nan nan nan nan nan nan nan nan nan nan nan nan nan nan nan nan nan nan nan nan nan nan nan nan nan nan nan nan nan nan nan nan nan nan 252 252 252 252 253 253 252 250 251 252 252 249 251 251 245 240 250 258 257 258 257 261 261 261 265 266 266 265 263 262 263 266 271 273 274 274 274 275 278 281 283 285 287 289
nan nan nan nan nan nan nan nan nan nan nan nan nan nan nan nan nan nan nan nan nan nan nan nan nan nan nan nan nan nan nan nan nan nan nan nan nan nan nan nan nan nan nan nan nan nan nan 251 256 260 257 251 248 252 253 248 249 253 251 238 247 262 262 262 263 263 263 264 264 267 268 268 266 265 268 273 277 279 278 nan nan nan nan nan nan nan 284
nan nan nan nan nan nan nan nan nan nan nan nan nan nan nan nan nan nan nan nan nan nan nan nan nan nan nan nan nan nan nan nan nan nan nan nan nan nan nan nan nan nan nan nan nan nan nan 253 259 268 270 267 260 255 259 260 256 261 262 262 249 256 267 267 266 267 266 263 261 263 264 266 268 268 271 277 280 280 279 278 nan nan nan nan nan nan nan
nan nan nan nan nan nan nan nan nan nan nan nan nan nan nan nan nan nan nan nan nan nan nan nan nan nan nan nan nan nan nan nan nan nan nan nan 247 246 nan nan nan nan nan nan nan nan 254 261 261 260 263 264 265 264 263 264 262 263 264 256 246 245 252 257 259 261 265 265 265 267 271 272 272 272 274 277 279 279 278 278 nan nan nan nan nan nan nan
nan nan nan nan nan nan nan nan nan nan nan nan nan nan nan nan nan nan nan nan nan nan nan nan nan nan nan nan nan nan nan nan nan nan nan nan nan nan nan nan nan nan nan nan nan 255 259 262 255 250 247 246 248 255 263 274 269 266 261 256 254 256 260 259 259 263 263 265 268 272 274 273 272 272 274 275 275 276 278 277 275 272 nan nan nan nan nan
nan nan nan nan nan nan nan nan nan nan nan nan nan nan nan nan nan nan nan nan nan nan nan nan nan nan nan nan nan nan nan nan nan nan nan nan nan nan nan nan nan nan nan nan nan nan 252 252 246 245 nan nan 249 260 261 269 270 265 263 262 261 258 258 263 268 265 264 264 268 271 272 272 271 267 265 264 263 262 262 266 268 264 nan nan nan nan nan
nan nan nan nan nan nan nan nan nan nan nan nan nan nan nan nan nan nan nan nan nan nan nan nan nan nan nan nan nan nan nan nan nan nan nan nan nan nan nan nan nan nan 246 246 nan 246 248 248 249 nan nan 251 255 257 264 272 270 266 266 267 268 268 269 266 267 272 274 273 268 264 265 270 275 275 273 272 271 267 258 259 263 264 nan nan nan nan nan
nan nan nan nan nan nan nan nan nan nan nan nan nan nan nan nan nan nan nan nan nan nan nan nan nan nan nan nan nan nan nan nan nan nan nan nan nan nan nan nan nan nan 245 244 246 248 247 246 248 nan 249 253 256 257 256 259 260 259 260 259 259 260 261 260 257 253 251 250 254 258 261 259 262 266 265 263 261 nan nan nan 265 269 nan nan nan nan nan
nan nan nan nan nan nan nan nan nan nan nan nan nan nan nan nan nan nan nan nan nan nan nan nan nan nan nan nan nan nan nan nan nan nan nan nan nan nan nan nan nan nan 252 252 nan 248 nan 248 249 nan 250 250 254 257 256 255 256 257 255 254 256 258 261 261 260 260 258 nan 257 258 256 252 254 258 nan 257 nan nan nan 263 268 nan nan nan nan nan nan
nan nan nan nan nan nan nan nan nan nan nan nan nan nan nan nan nan nan nan nan nan 237 240 246 253 nan nan nan nan nan nan nan nan nan nan nan nan nan nan nan nan nan nan nan nan nan nan nan nan 250 nan nan 254 260 261 259 259 260 260 258 253 252 253 253 255 257 255 254 252 252 256 252 250 nan nan nan nan nan 263 nan nan nan nan nan nan nan nan
nan nan nan nan nan nan nan nan nan nan nan nan nan nan nan nan nan nan nan nan nan nan nan nan 243 247 nan 253 nan nan nan nan nan nan nan nan nan nan 260 256 253 nan nan nan nan nan nan nan nan nan 251 253 254 256 nan nan nan nan nan 256 254 249 250 253 246 249 nan 250 nan nan nan 253 nan nan nan nan nan nan nan nan nan nan nan nan nan nan nan
nan nan nan nan nan nan nan nan nan nan nan nan nan nan nan nan nan nan nan nan nan nan nan nan nan nan nan nan nan nan nan nan nan nan nan nan nan nan nan 259 258 253 249 nan nan nan nan nan nan 242 242 245 247 251 nan nan nan nan nan nan nan nan nan nan nan nan nan nan nan nan nan nan nan nan nan nan nan nan nan nan nan nan nan nan nan nan nan
nan nan nan nan nan nan nan nan nan nan nan nan nan nan nan nan nan nan nan nan nan nan nan nan nan nan nan nan nan nan nan nan nan nan nan nan nan nan nan 255 254 254 248 nan nan nan nan nan nan 231 235 nan nan nan nan nan nan nan nan nan 246 nan nan nan nan nan nan nan nan nan nan nan nan nan nan nan nan nan nan nan nan nan nan nan nan nan nan
nan nan nan nan nan nan nan nan nan nan nan nan nan nan nan nan nan nan nan nan nan nan nan nan nan nan nan nan nan nan nan nan nan nan nan nan nan nan 249 249 252 249 242 241 nan nan nan 234 232 230 230 233 nan nan nan nan nan nan nan nan nan nan nan nan nan nan nan nan nan nan nan nan nan nan nan nan nan nan nan nan nan nan nan nan nan nan nan
nan nan nan nan nan nan nan nan nan nan nan nan nan nan nan nan nan nan nan nan nan nan nan nan nan nan nan nan nan nan nan nan nan nan nan nan nan nan 245 243 243 241 242 nan 243 nan 238 nan nan nan nan nan nan nan nan nan nan nan nan nan nan nan nan nan nan nan nan nan nan nan nan nan nan nan nan nan nan nan nan nan nan nan nan nan nan nan nan
nan nan nan nan nan nan nan nan nan nan nan nan nan nan nan nan nan nan nan nan nan nan nan nan nan nan nan nan nan nan nan nan nan nan nan nan nan nan nan nan nan nan nan nan nan nan nan nan nan nan nan nan nan nan nan nan nan nan nan nan nan nan nan nan nan nan nan nan nan nan nan nan nan nan nan nan nan nan nan nan nan nan nan nan nan nan nan
nan nan nan nan nan nan nan nan nan nan nan nan nan nan nan nan nan nan nan nan nan nan nan nan nan nan nan nan nan nan nan nan nan nan nan nan nan nan nan nan nan nan nan nan nan nan nan nan nan nan nan nan nan nan nan nan nan nan nan nan nan nan nan nan nan nan nan nan nan nan nan nan nan nan nan nan nan nan nan nan nan nan nan nan nan nan nan
nan nan nan nan nan nan nan nan nan nan nan nan nan nan nan nan nan nan nan nan nan nan nan nan nan nan nan nan nan nan nan nan nan nan nan nan nan nan nan nan nan nan nan nan nan nan nan nan nan nan nan nan nan nan nan nan nan nan nan nan nan nan nan nan nan nan nan nan nan nan nan nan nan nan nan nan nan nan nan nan nan nan nan nan nan nan nan
nan nan nan nan nan nan nan nan nan nan nan nan nan nan nan nan nan nan nan nan nan nan nan nan nan nan nan nan nan nan nan nan nan nan nan nan nan nan nan nan nan nan nan nan nan nan nan nan nan nan nan nan nan nan nan nan nan nan nan nan nan nan nan nan nan nan nan nan nan nan nan nan nan nan nan nan nan nan nan nan nan nan nan nan nan nan nan
nan nan nan nan nan nan nan nan nan nan nan nan nan nan nan nan nan nan nan nan nan nan nan nan nan nan nan nan nan nan nan nan nan nan nan nan nan nan nan nan nan nan nan nan nan nan nan nan nan nan nan nan nan nan nan nan nan nan nan nan nan nan nan nan nan nan nan nan nan nan nan nan nan nan nan nan nan nan nan nan nan nan nan nan nan nan nan